Simultaneous Nadir Overpasses (SNOs) Predictions

Prediction of SNOs between METOP-B and NOAA-19 Satellite Orbit:

Table of predicted SNOs for the next 14.0 days since TLE Epoch: 5/13/2023
Index Date (METOP-B) Time (METOP-B) Lat,Lon (METOP-B) SZA (METOP-B ) Date (NOAA-19) Time (NOAA-19) Lat,Lon (NOAA-19) SZA (NOAA-19 ) Distance(km) Time Diff (sec)
1 05/20/2023 22:24:11 80.93,-121.62 62.58 05/20/2023 22:23:04 80.92,-121.77 62.54 2.79 67
2 05/20/2023 23:14:52 -80.93, 45.73 117.43 05/20/2023 23:14:07 -80.92, 45.77 117.44 0.70 45
3 05/21/2023 00:05:33 80.92,-147.14 62.54 05/21/2023 00:05:03 80.92,-147.22 62.53 1.53 30
4 05/21/2023 00:56:14 -80.92, 20.21 117.47 05/21/2023 00:56:06 -80.93, 20.31 117.45 1.97 8
5 05/21/2023 01:46:54 80.93,-172.30 62.55 05/21/2023 01:47:01 80.93,-172.29 62.56 0.10 7
6 05/21/2023 02:37:35 -80.93, -4.95 117.46 05/21/2023 02:38:04 -80.93, -4.76 117.43 3.29 29
7 05/21/2023 03:28:15 80.94, 162.54 62.56 05/21/2023 03:28:59 80.93, 162.63 62.59 1.73 44



Historial Predications of SNOs between METOP-B and NOAA-19
